Regional Weather Roundup
Issued by NWS

Home | Current Version | Previous Version | Graphics & Text | Print | Product List | Glossary On
Versions: 1 2 3 4 5 6 7 8 9 10 11 12 13 14 15 16 17 18 19 20 21 22 23 24 25 26 27 28 29 30 31 32 33 34 35 36 37 38 39 40 41 42 43 44 45 46 47 48 49
000
ASUS45 KBOI 272110
RWRID

IDAHO REGIONAL WEATHER ROUNDUP
NATIONAL WEATHER SERVICE BOISE ID
300 PM MDT WED MAY 27 2015

NOTE: "FAIR" INDICATES FEW OR NO CLOUDS BELOW 12000 FEET
WITH NO SIGNIFICANT WEATHER AND/OR OBSTRUCTIONS TO VISIBILITY

IDZ012-014-272200-
SOUTHWEST IDAHO


CITY           SKY/WX    TMP DP  RH WIND       PRES   REMARKS
BOISE          MOSUNNY   74  40  29 W13G21    29.96F
CALDWELL       SUNNY     72  43  35 NW13      29.97F
MOUNTAIN HOME  PTSUNNY   74  40  29 NW10      29.94F
$$

IDZ016-017-272200-
SOUTHCENTRAL IDAHO


CITY           SKY/WX    TMP DP  RH WIND       PRES   REMARKS
BURLEY         MOSUNNY   69  42  37 W6        29.98F
JEROME         MOSUNNY   71  41  33 VRB5      29.98F
TWIN FALLS     PTSUNNY   71  43  36 NW9       29.96F
$$

IDZ019>023-272200-
SOUTHEAST IDAHO


CITY           SKY/WX    TMP DP  RH WIND       PRES   REMARKS
IDAHO FALLS    CLOUDY    55  44  66 W14G22    30.04S THUNDER
POCATELLO      PTSUNNY   68  45  43 S14       30.01F
REXBURG        CLOUDY    57  46  66 S13G24    30.04S
$$

IDZ006-010-011-018-031-032-272200-
CENTRAL IDAHO MOUNTAINS


CITY           SKY/WX    TMP DP  RH WIND       PRES   REMARKS
MCCALL         CLOUDY    56  38  50 W3        30.05S
HAILEY         PTSUNNY   48  39  71 CALM      30.05F
STANLEY          N/A     53  31  42 W3        30.10R
SALMON         CLOUDY    52  45  76 CALM      30.05R
CHALLIS        LGT RAIN  54  44  69 N10       30.02R
$$

IDZ002-004-006-007-026-272200-
NORTHERN IDAHO


CITY           SKY/WX    TMP DP  RH WIND       PRES   REMARKS
LEWISTON       PTSUNNY   72  48  42 S7G21     29.98S
LOWELL           N/A     63  51  65 S8        30.00R
COEUR D`ALENE  MOSUNNY   72  46  40 W5        29.97F
MULLAN PASS    CLOUDY    52  42  69 CALM      30.09S
$$


USA.gov is the U.S. government's official web portal to all federal, state and local government web resources and services.